Overview Statistics Trail Chart Weather Telemetry Raw packets
 

This is the latest recevied weather packets stored in our database for station/object KB4MLW-13. If no packets are shown the sender has not sent any weather packets the latest 10 day(s).

<< 108 109 110 111 112 113 114 >>
Time Temp. Humidity Pressure Rain* Wind** Luminosity Snow
1788194398 32.22° C 64% 1003.7 hPa 0 mm - - -
1788194338 32.22° C 63% 1003.6 hPa 0 mm - - -
1788194278 32.22° C 65% 1003.6 hPa 0 mm - - -
1788194218 32.22° C 65% 1003.6 hPa 0 mm - - -
1788194158 32.22° C 63% 1003.8 hPa 0 mm - - -
1788194098 32.22° C 63% 1003.5 hPa 0 mm - - -
1788194038 32.78° C 63% 1003.6 hPa 0 mm - - -
1788193949 32.78° C 65% 1003.8 hPa 0 mm - - -
1788193889 32.22° C 64% 1003.9 hPa 0 mm - - -
1788193799 32.22° C 68% 1003.7 hPa 0 mm - - -
1788193738 32.22° C 64% 1003.5 hPa 0 mm - - -
1788193678 32.22° C 64% 1003.8 hPa 0 mm - - -
1788193618 32.22° C 64% 1003.7 hPa 0 mm - - -
1788193529 32.22° C 66% 1003.9 hPa 0 mm - - -
1788193440 32.22° C 64% 1003.8 hPa 0 mm - - -
1788193378 32.22° C 67% 1003.8 hPa 0 mm - - -
1788193318 32.22° C 64% 1003.7 hPa 0 mm - - -
1788193258 32.22° C 65% 1003.7 hPa 0 mm - - -
1788193198 32.22° C 64% 1003.8 hPa 0 mm - - -
1788193138 32.22° C 69% 1003.9 hPa 0 mm - - -
1788193078 32.22° C 65% 1003.8 hPa 0 mm - - -
1788193018 32.22° C 64% 1003.7 hPa 0 mm - - -
1788192958 32.22° C 64% 1003.8 hPa 0 mm - - -
1788192898 32.22° C 65% 1003.7 hPa 0 mm - - -
1788192838 32.22° C 65% 1003.8 hPa 0 mm - - -

* Rain latest hour (hover to see other rain measurements)
** Current wind speed in m/s (hover to see current wind gust speed)